Flag for Colombia Weather past 2 weeks in San Andrés, Colombia

Now
86 °F

Overcast.


Feels Like: 99 °F
Forecast: 83 / 87 °F
Wind: 8 mph from East

Location: San Andres Isla / Sesquicentenario

Current Time: Sep 2, 2015 at 2:52:52 PM

Latest Report: Sep 2, 2015 at 2:00 PM


Visibility: N/A

Pressure: 29.89 "Hg

Humidity: 79%

Dew point: 79 °F

Location of San AndrésLocation

Historic Weather in San Andrés — Graph

°F

San Andrés temperature yesterday

Maximum temperature yesterday: 88 °F (at 12:00 PM)
Minimum temperature yesterday: 82 °F (at 4:00 AM)
Average temperature yesterday: 85 °F

Past Weeks' High & Low Weather Summary

 TemperatureHumidityPressure
High90 °F (Aug 29, 3:00 PM)100% (Aug 19, 4:00 AM)30.05 "Hg (Aug 19, 4:00 AM)
Low70 °F (Aug 23, 12:00 AM)55% (Aug 29, 3:00 PM)29.73 "Hg (Aug 29, 3:00 PM)
Average84 °F82%29.86 "Hg
* Reported Aug 18 1:00 PM — Sep 2 1:00 PM, San Andrés, Weather by CustomWeather, © 2015

Note: Actual official high and low records may vary slightly from our data, if they occured in-between our weather recording intervals... More about our weather records

Advertising

San Andrés weather history for previous 24 hours

 ConditionsComfort  
Time TempWeatherWind HumidityBarometerVisibility
1:00 PM
Wed, Sep 2
86 °FPartly sunny.9 mph79%29.92 "HgN/A
12:00 PM88 °FPartly sunny.8 mph79%29.92 "HgN/A
11:00 AM86 °FScattered clouds.6 mph79%29.93 "HgN/A
10:00 AM86 °FScattered clouds.6 mph79%29.93 "HgN/A
9:00 AM84 °FScattered clouds.6 mph84%29.92 "HgN/A
8:00 AM84 °FScattered clouds.7 mph84%29.90 "HgN/A
7:00 AM84 °FPartly sunny.8 mph84%29.88 "HgN/A
6:00 AM84 °FPartly cloudy.10 mph84%29.87 "HgN/A
5:00 AM84 °FPassing clouds.8 mph84%29.88 "HgN/A
4:00 AM84 °FPassing clouds.7 mph84%29.87 "HgN/A
3:00 AM84 °FOvercast.10 mph84%29.87 "HgN/A
2:00 AM84 °FOvercast.10 mph84%29.90 "HgN/A
1:00 AM84 °FPassing clouds.9 mph84%29.96 "HgN/A
12:00 AM84 °FPassing clouds.9 mph84%29.92 "HgN/A
11:00 PM
Tue, Sep 1
84 °FPassing clouds.10 mph84%29.93 "HgN/A
10:00 PM84 °FPassing clouds.10 mph89%29.92 "HgN/A
9:00 PM84 °FPassing clouds.12 mph84%29.90 "HgN/A
8:00 PM84 °FPassing clouds.10 mph84%29.89 "HgN/A
7:00 PM84 °FPartly cloudy.13 mph84%29.87 "HgN/A
6:00 PM84 °FScattered clouds.9 mph84%29.85 "HgN/A
4:00 PM86 °FScattered clouds.8 mph84%29.84 "HgN/A
3:00 PM86 °FPassing clouds.7 mph84%29.86 "HgN/A
2:00 PM88 °FPassing clouds.8 mph79%29.89 "HgN/A
Weather by CustomWeather, © 2015

See weather overviewHow to use our weather pages